Time,TemperatureF,DewpointF,PressureIn,WindDirection,WindDirectionDegrees,WindSpeedMPH,WindSpeedGustMPH,Humidity,HourlyPrecipIn,Conditions,Clouds,dailyrainin,SoftwareType,DateUTC
2013-08-07 00:01:00,68.0,64.0,29.82,SSW,194,4.0,4.0,87,0.00,,,0.00,,2013-08-07 04:01:00,
2013-08-07 00:33:00,68.0,63.0,29.82,South,180,1.0,6.0,85,0.00,,,0.00,,2013-08-07 04:33:00,
2013-08-07 00:43:00,68.0,63.0,29.81,SSE,165,5.0,7.0,85,0.00,,,0.00,,2013-08-07 04:43:00,
2013-08-07 00:52:00,68.0,63.0,29.81,SSE,165,5.0,7.0,85,0.00,,,0.00,,2013-08-07 04:52:00,
2013-08-07 01:02:00,68.0,64.0,29.81,SSE,166,2.0,6.0,86,0.00,,,0.00,,2013-08-07 05:02:00,
2013-08-07 01:22:00,68.0,64.0,29.80,SSE,163,5.0,8.0,87,0.00,,,0.00,,2013-08-07 05:22:00,
2013-08-07 01:32:00,68.0,64.0,29.79,SE,146,3.0,8.0,88,0.00,,,0.00,,2013-08-07 05:32:00,
2013-08-07 01:43:00,68.0,64.0,29.79,SSW,206,2.0,8.0,88,0.00,,,0.00,,2013-08-07 05:43:00,
2013-08-07 01:52:00,68.0,64.0,29.79,SSW,206,2.0,8.0,88,0.00,,,0.00,,2013-08-07 05:52:00,
2013-08-07 02:02:00,67.0,64.0,29.79,SSE,164,2.0,6.0,89,0.00,,,0.00,,2013-08-07 06:02:00,
2013-08-07 02:11:00,67.0,64.0,29.79,SSE,164,2.0,6.0,89,0.00,,,0.00,,2013-08-07 06:11:00,
2013-08-07 02:22:00,67.0,64.0,29.78,South,179,1.0,5.0,90,0.00,,,0.00,,2013-08-07 06:22:00,
2013-08-07 02:32:00,67.0,64.0,29.78,South,177,3.0,5.0,90,0.00,,,0.00,,2013-08-07 06:32:00,
2013-08-07 02:43:00,66.0,63.0,29.78,ENE,64,2.0,6.0,91,0.00,,,0.00,,2013-08-07 06:43:00,
2013-08-07 02:52:00,67.0,64.0,29.78,SW,214,1.0,6.0,91,0.00,,,0.00,,2013-08-07 06:52:00,
2013-08-07 03:01:00,67.0,64.0,29.78,SW,214,1.0,6.0,91,0.00,,,0.00,,2013-08-07 07:01:00,
2013-08-07 03:12:00,68.0,65.0,29.77,South,180,3.0,6.0,90,0.00,,,0.00,,2013-08-07 07:12:00,
2013-08-07 03:22:00,68.0,65.0,29.76,South,183,4.0,7.0,90,0.00,,,0.00,,2013-08-07 07:22:00,
2013-08-07 03:33:00,68.0,65.0,29.75,SSE,153,2.0,7.0,90,0.00,,,0.00,,2013-08-07 07:33:00,
2013-08-07 03:43:00,68.0,66.0,29.75,SSE,168,5.0,12.0,92,0.00,,,0.00,,2013-08-07 07:43:00,
2013-08-07 03:52:00,66.0,61.0,29.75,SW,235,2.0,27.0,83,0.02,,,0.02,,2013-08-07 07:52:00,
2013-08-07 04:01:00,64.0,61.0,29.74,SSE,160,0.0,27.0,90,0.02,,,0.02,,2013-08-07 08:01:00,
2013-08-07 04:11:00,64.0,61.0,29.74,SSE,160,0.0,27.0,90,0.02,,,0.02,,2013-08-07 08:11:00,
2013-08-07 04:32:00,65.0,64.0,29.73,ENE,69,0.0,4.0,95,0.02,,,0.02,,2013-08-07 08:32:00,
2013-08-07 04:44:00,65.0,64.0,29.73,NE,42,2.0,4.0,96,0.03,,,0.03,,2013-08-07 08:44:00,
2013-08-07 04:53:00,65.0,64.0,29.73,NE,42,2.0,4.0,96,0.03,,,0.03,,2013-08-07 08:53:00,
2013-08-07 05:02:00,64.0,63.0,29.73,NW,308,4.0,16.0,95,0.05,,,0.06,,2013-08-07 09:02:00,
2013-08-07 05:12:00,64.0,62.0,29.75,SSW,207,1.0,16.0,94,0.05,,,0.06,,2013-08-07 09:12:00,
2013-08-07 05:32:00,64.0,62.0,29.71,ENE,78,3.0,4.0,94,0.04,,,0.06,,2013-08-07 09:32:00,
2013-08-07 05:43:00,63.0,62.0,29.69,NNE,19,1.0,6.0,96,0.04,,,0.06,,2013-08-07 09:43:00,
2013-08-07 06:22:00,63.0,62.0,29.70,SE,140,0.0,4.0,96,0.02,,,0.06,,2013-08-07 10:22:00,
2013-08-07 06:43:00,63.0,62.0,29.73,South,181,2.0,4.0,97,0.01,,,0.07,,2013-08-07 10:43:00,
2013-08-07 07:11:00,62.0,61.0,29.73,South,181,0.0,3.0,97,0.01,,,0.07,,2013-08-07 11:11:00,
2013-08-07 07:22:00,62.0,61.0,29.73,South,181,0.0,3.0,97,0.01,,,0.07,,2013-08-07 11:22:00,
2013-08-07 07:32:00,62.0,61.0,29.74,South,181,2.0,3.0,97,0.01,,,0.07,,2013-08-07 11:32:00,
2013-08-07 07:53:00,62.0,61.0,29.74,SW,233,1.0,5.0,98,0.01,,,0.07,,2013-08-07 11:53:00,
2013-08-07 08:02:00,63.0,62.0,29.75,West,271,2.0,5.0,98,0.00,,,0.07,,2013-08-07 12:02:00,
2013-08-07 08:33:00,64.0,63.0,29.76,SW,236,3.0,10.0,98,0.00,,,0.07,,2013-08-07 12:33:00,
2013-08-07 08:43:00,64.0,63.0,29.76,West,281,3.0,10.0,97,0.01,,,0.08,,2013-08-07 12:43:00,
2013-08-07 08:52:00,64.0,63.0,29.76,WNW,295,3.0,8.0,97,0.01,,,0.08,,2013-08-07 12:52:00,
2013-08-07 09:11:00,64.0,63.0,29.76,WNW,294,3.0,9.0,97,0.01,,,0.08,,2013-08-07 13:11:00,
2013-08-07 09:44:00,65.0,64.0,29.76,West,269,5.0,10.0,96,0.01,,,0.08,,2013-08-07 13:44:00,
2013-08-07 09:53:00,66.0,64.0,29.77,WNW,298,0.0,10.0,93,0.01,,,0.08,,2013-08-07 13:53:00,
2013-08-07 10:02:00,66.0,64.0,29.78,ENE,78,1.0,6.0,94,0.00,,,0.08,,2013-08-07 14:02:00,
2013-08-07 10:12:00,66.0,64.0,29.78,ENE,78,1.0,6.0,94,0.00,,,0.08,,2013-08-07 14:12:00,
2013-08-07 10:22:00,66.0,64.0,29.78,North,357,4.0,9.0,92,0.00,,,0.08,,2013-08-07 14:22:00,
2013-08-07 10:33:00,66.0,63.0,29.78,West,265,2.0,6.0,91,0.00,,,0.08,,2013-08-07 14:33:00,
2013-08-07 10:43:00,67.0,64.0,29.78,WNW,293,5.0,6.0,90,0.00,,,0.08,,2013-08-07 14:43:00,
2013-08-07 10:52:00,67.0,64.0,29.78,WNW,287,3.0,5.0,90,0.00,,,0.08,,2013-08-07 14:52:00,
2013-08-07 11:02:00,67.0,64.0,29.78,WNW,287,3.0,5.0,90,0.00,,,0.08,,2013-08-07 15:02:00,
2013-08-07 11:12:00,67.0,63.0,29.79,West,259,3.0,8.0,88,0.00,,,0.08,,2013-08-07 15:12:00,
2013-08-07 11:22:00,68.0,64.0,29.79,WSW,246,3.0,6.0,87,0.01,,,0.09,,2013-08-07 15:22:00,
2013-08-07 11:33:00,68.0,64.0,29.80,WNW,301,3.0,6.0,86,0.01,,,0.09,,2013-08-07 15:33:00,
2013-08-07 11:53:00,69.0,64.0,29.80,West,276,2.0,10.0,84,0.01,,,0.09,,2013-08-07 15:53:00,
2013-08-07 12:02:00,69.0,64.0,29.80,West,262,3.0,7.0,83,0.01,,,0.09,,2013-08-07 16:02:00,
2013-08-07 12:11:00,70.0,64.0,29.80,WSW,246,3.0,7.0,82,0.01,,,0.09,,2013-08-07 16:11:00,
2013-08-07 12:22:00,70.0,64.0,29.82,NW,317,1.0,8.0,80,0.01,,,0.09,,2013-08-07 16:22:00,
2013-08-07 12:33:00,71.0,64.0,29.82,WSW,252,6.0,7.0,78,0.00,,,0.09,,2013-08-07 16:33:00,
2013-08-07 12:43:00,70.0,63.0,29.82,WNW,285,3.0,8.0,78,0.00,,,0.09,,2013-08-07 16:43:00,
2013-08-07 12:53:00,70.0,63.0,29.83,WSW,258,5.0,10.0,78,0.00,,,0.09,,2013-08-07 16:53:00,
2013-08-07 13:11:00,72.0,64.0,29.83,West,272,6.0,9.0,75,0.00,,,0.09,,2013-08-07 17:11:00,
2013-08-07 13:33:00,72.0,64.0,29.84,WNW,295,0.0,10.0,76,0.00,,,0.09,,2013-08-07 17:33:00,
2013-08-07 13:43:00,70.0,62.0,29.84,West,266,2.0,10.0,76,0.01,,,0.10,,2013-08-07 17:43:00,
2013-08-07 13:52:00,72.0,64.0,29.84,West,270,8.0,10.0,76,0.01,,,0.10,,2013-08-07 17:52:00,
2013-08-07 14:02:00,72.0,63.0,29.85,WSW,241,2.0,11.0,74,0.01,,,0.10,,2013-08-07 18:02:00,
2013-08-07 14:11:00,72.0,63.0,29.85,WSW,241,2.0,11.0,74,0.01,,,0.10,,2013-08-07 18:11:00,
2013-08-07 14:43:00,72.0,63.0,29.85,SE,144,5.0,10.0,74,0.01,,,0.10,,2013-08-07 18:43:00,
2013-08-07 14:52:00,72.0,62.0,29.85,SE,137,3.0,10.0,72,0.01,,,0.10,,2013-08-07 18:52:00,
2013-08-07 15:01:00,72.0,62.0,29.86,SSE,154,5.0,9.0,72,0.00,,,0.10,,2013-08-07 19:01:00,
2013-08-07 15:11:00,71.0,62.0,29.86,SE,146,3.0,9.0,74,0.00,,,0.10,,2013-08-07 19:11:00,
2013-08-07 15:32:00,71.0,63.0,29.86,SE,144,5.0,8.0,77,0.00,,,0.10,,2013-08-07 19:32:00,
2013-08-07 15:52:00,71.0,62.0,29.86,SSE,148,5.0,10.0,74,0.00,,,0.10,,2013-08-07 19:52:00,
2013-08-07 16:02:00,71.0,63.0,29.87,SSE,165,3.0,8.0,76,0.00,,,0.10,,2013-08-07 20:02:00,
2013-08-07 16:11:00,70.0,62.0,29.87,ESE,107,4.0,8.0,77,0.00,,,0.10,,2013-08-07 20:11:00,
2013-08-07 16:22:00,70.0,62.0,29.87,ESE,107,4.0,8.0,77,0.00,,,0.10,,2013-08-07 20:22:00,
2013-08-07 16:43:00,69.0,62.0,29.87,WNW,301,1.0,10.0,79,0.00,,,0.10,,2013-08-07 20:43:00,
2013-08-07 16:52:00,69.0,62.0,29.87,WNW,301,1.0,10.0,79,0.00,,,0.10,,2013-08-07 20:52:00,
2013-08-07 17:22:00,68.0,62.0,29.88,NNE,12,2.0,9.0,80,0.00,,,0.10,,2013-08-07 21:22:00,
2013-08-07 17:32:00,68.0,62.0,29.88,NNE,12,2.0,9.0,80,0.00,,,0.10,,2013-08-07 21:32:00,
2013-08-07 17:43:00,69.0,61.0,29.89,NW,324,4.0,9.0,77,0.01,,,0.11,,2013-08-07 21:43:00,
2013-08-07 17:52:00,69.0,61.0,29.89,NW,324,4.0,9.0,77,0.01,,,0.11,,2013-08-07 21:52:00,
2013-08-07 18:01:00,70.0,63.0,29.89,South,171,4.0,8.0,78,0.01,,,0.11,,2013-08-07 22:01:00,
2013-08-07 18:12:00,70.0,62.0,29.89,East,96,4.0,9.0,76,0.01,,,0.11,,2013-08-07 22:12:00,
2013-08-07 18:22:00,69.0,61.0,29.90,NNE,32,5.0,10.0,75,0.00,,,0.11,,2013-08-07 22:22:00,
2013-08-07 18:43:00,68.0,61.0,29.91,North,359,2.0,10.0,77,0.00,,,0.11,,2013-08-07 22:43:00,
2013-08-07 18:52:00,68.0,61.0,29.91,North,359,2.0,10.0,77,0.00,,,0.11,,2013-08-07 22:52:00,
2013-08-07 19:11:00,69.0,61.0,29.90,NNW,328,4.0,10.0,77,0.00,,,0.11,,2013-08-07 23:11:00,
2013-08-07 19:32:00,68.0,59.0,29.91,South,170,4.0,11.0,74,0.00,,,0.11,,2013-08-07 23:32:00,
2013-08-07 19:43:00,68.0,59.0,29.91,South,182,1.0,11.0,74,0.00,,,0.11,,2013-08-07 23:43:00,
2013-08-07 19:52:00,68.0,61.0,29.92,North,0,4.0,8.0,77,0.00,,,0.11,,2013-08-07 23:52:00,
2013-08-07 20:01:00,67.0,60.0,29.92,North,349,3.0,9.0,79,0.00,,,0.11,,2013-08-08 00:01:00,
2013-08-07 20:11:00,66.0,60.0,29.92,NNW,337,3.0,9.0,80,0.00,,,0.11,,2013-08-08 00:11:00,
2013-08-07 20:22:00,66.0,60.0,29.92,NNW,337,3.0,9.0,80,0.00,,,0.11,,2013-08-08 00:22:00,
2013-08-07 20:32:00,66.0,60.0,29.92,NNW,337,3.0,9.0,80,0.00,,,0.11,,2013-08-08 00:32:00,
2013-08-07 20:42:00,66.0,60.0,29.93,North,354,4.0,10.0,82,0.00,,,0.11,,2013-08-08 00:42:00,
2013-08-07 20:52:00,65.0,59.0,29.93,North,352,6.0,9.0,82,0.00,,,0.11,,2013-08-08 00:52:00,
2013-08-07 21:02:00,65.0,60.0,29.93,NNE,13,5.0,9.0,83,0.00,,,0.11,,2013-08-08 01:02:00,
2013-08-07 21:11:00,65.0,60.0,29.94,North,10,12.0,12.0,83,0.00,,,0.11,,2013-08-08 01:11:00,
2013-08-07 21:22:00,64.0,59.0,29.94,North,355,7.0,12.0,83,0.00,,,0.11,,2013-08-08 01:22:00,
2013-08-07 21:32:00,64.0,59.0,29.94,North,355,7.0,12.0,83,0.00,,,0.11,,2013-08-08 01:32:00,
2013-08-07 21:43:00,64.0,58.0,29.95,North,358,8.0,16.0,82,0.00,,,0.11,,2013-08-08 01:43:00,
2013-08-07 22:02:00,63.0,57.0,29.96,North,353,5.0,12.0,82,0.00,,,0.11,,2013-08-08 02:02:00,
2013-08-07 22:42:00,62.0,57.0,29.98,North,359,3.0,10.0,85,0.00,,,0.11,,2013-08-08 02:42:00,
2013-08-07 22:52:00,61.0,56.0,29.98,NNW,332,2.0,4.0,85,0.00,,,0.11,,2013-08-08 02:52:00,
2013-08-07 23:12:00,60.0,56.0,29.99,NNW,333,0.0,4.0,86,0.00,,,0.11,,2013-08-08 03:12:00,
2013-08-07 23:43:00,60.0,57.0,29.99,North,352,3.0,4.0,89,0.00,,,0.11,,2013-08-08 03:43:00,
2013-08-07 23:52:00,60.0,57.0,29.99,North,352,3.0,4.0,89,0.00,,,0.11,,2013-08-08 03:52:00,